CAPE
506 387 458 573 387 387 446 367 255 358 354 292 301 313 204 291 108 243 159 206 17 48 1 23 562 279 449 685 256 482 632 191 491 429 418 476 911 1439 299 276 325 234 196 164 133 176 120 182 318 437 565 584 668 650 660 676 710 793 772 825 898 978 1050 1075 990 897 879 841 730 699 629 592 579 523
535 580 572 579 532 418 623 546 193 422 633 439 347 291 172 206 337 214 125 186 132 59 50 0 265 629 623 595 610 374 492 529 451 265 514 482 541 542 151 65 54 66 67 43 30 32 55 66 99 200 285 324 379 447 482 583 590 652 671 712 841 906 952 1008 953 989 974 884 810 781 734 696 652 607
742 775 821 921 792 818 859 597 272 345 684 527 352 270 251 308 230 278 233 149 139 76 75 76 46 281 642 206 215 458 467 586 91 339 653 660 748 24 467 0 7 8 8 21 18 21 20 18 21 44 111 144 348 418 574 598 718 819 818 772 694 635 596 483 374 458 590 688 764 796 767 758 750 728
1009 1053 967 1030 1090 936 956 694 415 572 656 496 484 352 322 417 405 297 205 175 210 463 88 104 268 159 390 471 233 245 235 809 65 216 384 1039 279 130 182 86 31 13 30 31 36 15 10 6 8 24 63 174 266 396 582 644 654 435 379 412 310 176 187 130 153 234 259 326 394 443 470 498 595 617
1060 1268 1034 981 1120 1036 1036 873 553 455 621 480 409 528 561 394 400 281 315 261 301 327 371 267 117 212 209 388 532 382 234 446 492 54 187 604 517 245 234 640 329 98 23 34 19 7 2 0 1 10 40 119 190 374 440 376 192 100 132 150 2 0 12 1 0 28 32 30 42 88 149 263 341 436
1313 1424 1232 925 1108 1141 1063 991 734 537 511 473 363 428 428 411 470 396 392 318 290 332 680 717 315 145 306 132 493 415 290 206 382 668 481 688 538 406 319 208 683 327 137 56 4 0 0 0 0 0 3 28 130 151 170 94 6 0 4 0 0 0 0 0 0 0 0 0 6 24 15 23 69 169
1653 1466 1398 1075 1096 1116 1121 1078 878 693 602 544 392 370 457 435 362 568 487 366 424 474 469 508 483 474 448 420 302 432 408 312 320 365 487 594 725 743 569 333 265 517 160 73 8 0 0 0 0 0 0 5 17 19 3 0 0 0 0 0 0 0 0 0 0 0 0 0 0 0 0 0 0 0
1843 1626 1478 1000 876 1115 1189 1220 1046 866 763 658 580 481 541 582 449 462 768 616 325 298 370 527 548 312 389 386 480 395 465 392 340 373 375 550 625 545 648 670 536 505 108 166 54 0 0 0 0 0 0 0 0 0 0 0 0 0 0 0 0 0 0 0 0 0 0 0 0 0 0 0 0 0
2075 1898 1510 1157 916 1258 1387 1368 1132 992 1001 881 763 628 514 641 573 462 532 783 587 348 370 446 507 591 476 444 423 424 434 428 466 498 566 478 629 732 536 417 354 436 168 116 11 0 0 0 0 0 0 0 0 0 0 0 0 0 0 0 0 0 0 0 0 0 0 0 0 0 0 0 0 0
2212 2184 1805 1388 1211 1205 1521 1425 1223 1187 1106 1130 930 796 656 676 703 571 549 756 736 624 463 485 458 554 537 487 467 462 449 366 327 471 780 1054 999 749 686 494 308 385 317 632 879 506 222 52 0 0 0 0 0 0 0 0 0 0 0 0 0 0 0 0 0 0 0 0 0 0 0 0 0 0
2353 2218 2076 1743 1468 1486 1594 1525 1292 1380 1321 1358 1174 998 925 799 788 657 540 829 694 631 634 488 489 468 398 397 427 357 526 476 359 325 325 480 870 1406 1236 915 602 530 482 573 347 195 246 219 282 8 0 0 0 0 0 0 0 0 0 0 0 0 0 0 0 0 0 0 0 0 0 0 0 0
2468 2441 2291 1969 1778 1683 1771 1689 1366 1421 1544 1577 1397 1122 1057 938 941 760 548 580 583 696 566 506 371 426 410 405 403 246 686 724 544 532 400 386 437 559 1052 1401 820 719 634 624 369 436 313 216 178 114 117 119 133 108 1 16 6 0 0 0 0 0 0 0 0 0 0 0 0 0 0 0 0 0
2733 2622 2511 2258 2024 2022 1824 1528 1400 1197 1458 1775 1487 1376 1338 1146 986 846 488 627 621 533 615 586 496 451 431 378 316 322 356 565 337 949 1135 733 519 441 406 558 1292 1052 641 552 413 826 930 914 942 890 1095 1101 718 610 473 316 190 18 0 0 0 0 0 0 0 0 0 0 0 0 0 0 0 0
3003 2748 2576 2359 1837 1570 1468 1364 1188 967 1156 1287 1333 1621 1648 1366 1048 784 791 762 703 637 478 347 383 454 390 336 276 228 129 277 781 1062 1056 740 571 646 670 509 556 1224 845 366 609 928 834 774 944 478 512 523 322 258 168 180 174 37 0 0 0 0 0 0 0 0 0 0 0 0 0 0 0 0
3122 2996 2800 2659 1973 1501 1264 1223 1027 796 904 906 803 1012 1434 1312 1168 962 967 874 715 630 546 410 277 401 367 302 188 99 128 115 372 890 476 472 332 219 39 83 139 926 943 708 400 370 487 529 420 427 325 217 196 156 65 8 0 0 0 0 0 0 0 0 0 0 0 0 0 0 0 0 0 0
3290 3141 2945 2720 2598 2058 1728 1654 1263 883 800 684 567 657 813 859 952 1026 1019 932 818 739 646 479 482 406 191 407 278 210 156 65 169 346 207 404 470 126 67 64 68 497 638 704 336 199 256 151 167 210 205 140 198 96 82 0 0 0 0 0 0 0 0 0 0 0 0 0 0 0 0 0 0 0
3455 3300 3074 2901 2658 2612 1536 1214 1610 1370 1027 949 894 873 934 1025 1056 1082 1122 1078 1367 797 663 441 318 356 403 396 347 273 191 156 100 62 72 133 149 102 120 97 63 265 120 156 96 36 21 29 60 161 169 94 45 6 13 0 0 0 0 0 0 0 0 0 0 0 0 0 0 0 0 0 0 0
3411 3428 3287 3022 2818 2697 2049 1670 1677 1833 1511 1124 1047 1138 1201 1203 1169 1181 1229 1235 1083 896 736 562 469 411 622 578 469 294 461 394 238 74 75 49 60 107 129 162 184 114 21 27 15 0 3 11 23 18 33 1 0 0 231 0 0 0 0 0 0 0 0 0 0 0 0 0 0 0 0 0 0 0
3265 3360 3314 3182 2989 2868 2642 1934 1669 1887 1856 1501 1233 1332 1390 1350 1285 1242 1242 1202 987 874 712 573 620 341 446 694 474 588 700 456 413 282 297 349 289 220 71 4 2 2 23 64 2 0 0 0 0 3 0 0 0 0 0 0 0 0 0 0 0 0 0 0 0 0 0 0 0 0 0 0 0 0
2698 2899 3235 3292 3143 3043 2941 1914 1384 1588 1994 1888 1417 1474 1412 1294 1228 1204 1132 1059 912 960 620 411 346 332 860 1684 1406 1656 230 450 290 127 35 38 5 2 1 0 0 0 0 4 0 0 0 0 0 0 0 0 0 0 0 0 0 0 0 0 0 0 0 0 0 0 0 0 0 0 0 0 0 0
2596 2575 2698 2958 3207 3172 3117 2201 1574 1523 1554 1917 1805 1572 1518 1458 1387 1254 1140 1011 795 601 462 421 384 303 205 37 0 0 2 1490 165 132 18 1 0 8 2 2 0 0 0 0 0 0 0 0 0 0 0 0 0 0 0 0 0 0 0 0 0 0 0 0 0 0 0 0 0 0 0 0 0 0
2433 2377 2223 2213 2905 3131 3224 2206 1844 1643 1626 1756 1682 1719 1660 1550 1469 1316 1142 992 726 578 547 512 348 242 173 5 0 0 0 0 69 84 19 0 0 0 0 0 0 0 0 0 0 0 0 0 0 0 0 0 0 0 0 0 0 0 0 0 0 0 0 0 0 0 0 0 0 0 0 0 0 7
2350 2486 2318 2060 2322 2643 2984 2282 1942 1704 1688 1725 1811 1798 1684 1453 1268 1167 985 863 811 682 522 358 281 188 0 26 60 0 0 0 0 0 8 0 0 0 0 0 0 0 0 2 0 0 0 0 0 0 0 0 0 0 0 0 0 0 0 0 0 0 0 0 0 0 0 0 0 0 0 0 0 25
2558 2493 2747 2220 1961 2134 2337 2227 1911 1783 1784 1805 1924 1822 1682 1408 1224 962 828 806 747 547 390 342 254 150 31 5 0 0 0 0 0 0 0 0 0 0 0 0 0 0 0 0 0 0 0 0 0 0 0 0 0 0 0 0 0 0 0 0 0 0 0 0 0 0 0 0 0 0 0 0 0 99
2493 2526 2383 2606 2037 1823 1827 1935 1848 1862 1846 1918 1962 1822 1611 1456 1296 1100 1107 784 531 406 314 310 192 80 18 0 1 23 0 0 0 0 0 0 0 0 0 0 0 0 0 0 0 0 0 0 0 0 0 0 0 0 0 0 0 0 0 0 0 0 0 0 0 0 0 0 0 0 0 0 0 59
2488 2523 2466 2435 2432 1872 1720 1688 1790 1864 1881 1981 1914 1798 1742 1630 1473 1355 1003 530 386 472 275 244 100 29 9 0 0 0 0 0 0 0 0 0 0 0 0 0 0 0 0 0 0 0 0 0 0 0 0 0 0 0 0 0 0 0 0 0 0 0 0 0 0 0 0 6 12 194 0 0 0 0
2519 2635 2590 2235 2232 1791 1709 1690 1826 1907 1919 2002 1928 1834 1676 1508 1403 1158 699 389 317 482 302 180 62 57 14 2 0 0 0 0 0 0 0 0 0 0 0 0 0 0 0 0 0 0 0 0 0 0 0 0 0 0 0 0 0 0 0 0 0 0 0 0 0 0 0 15 14 0 0 0 0 0
2647 2642 2694 2265 1980 1714 1666 1676 1796 1899 2068 2036 1888 1732 1511 1368 1184 909 560 506 454 296 170 88 75 77 21 0 0 0 0 0 0 0 0 0 0 0 0 0 0 0 0 0 0 0 0 0 0 0 0 0 0 0 0 0 0 0 0 0 0 0 0 0 0 0 0 0 0 0 5 16 26 208
2640 2433 2450 1921 1673 1606 1555 1662 1810 2092 2153 2069 2009 1771 1572 1429 1057 787 441 406 406 244 155 112 72 48 6 0 0 0 0 0 0 0 0 0 0 0 0 0 0 0 0 0 0 0 0 0 0 0 0 0 0 0 0 0 0 0 0 0 0 0 0 0 0 0 0 0 0 0 1 7 22 22
2296 2216 2138 1748 1589 1509 1498 1718 2018 2178 2190 2174 2057 1920 1837 1289 809 460 421 346 257 214 146 119 13 1 0 0 0 0 0 0 0 0 0 0 0 0 0 0 0 0 0 0 0 0 0 0 0 0 0 0 0 0 0 0 0 0 0 0 0 0 0 0 0 0 0 0 0 0 0 0 7 19
2254 2060 1898 1697 1569 1460 1574 1866 2150 2243 2255 2172 2101 1984 1487 737 452 254 461 297 252 173 122 25 2 0 0 0 0 0 0 0 0 0 0 0 0 2 1 0 0 0 0 0 0 0 0 0 0 0 0 0 0 0 0 0 0 0 0 0 0 0 0 0 0 0 0 0 0 0 0 1 1 1
2079 2144 1904 1667 1578 1562 1708 1957 2120 2298 2261 2123 1952 1574 656 430 242 231 179 242 164 117 33 6 1 0 0 0 0 0 0 0 0 0 0 0 0 4 1 0 0 0 0 0 0 0 0 0 0 0 0 0 0 0 0 0 0 0 0 0 0 0 0 0 0 0 0 0 0 0 0 1 0 0
2108 2020 1904 1732 1700 1741 1867 2037 2230 2347 2215 1971 1613 950 392 316 299 197 18 29 75 103 32 4 0 0 0 0 0 0 0 0 0 0 0 0 0 0 0 0 0 0 0 0 0 0 0 0 0 0 0 0 0 0 0 0 0 0 0 0 0 0 0 0 0 0 0 0 0 0 0 0 0 0
2053 1979 1871 1767 1731 1782 1929 2118 2215 2148 1986 1759 1320 550 295 112 239 74 2 2 3 2 0 0 0 0 0 0 0 0 0 0 0 5 0 0 0 0 0 0 0 0 0 0 0 0 0 0 0 0 0 0 0 0 0 0 0 0 0 0 0 0 0 0 0 0 0 0 0 0 0 0 0 0
1864 1672 1758 1766 1734 1829 2018 2158 2165 2032 1844 1624 929 437 244 161 88 78 1 7 2 4 0 0 0 0 0 0 0 0 0 0 0 8 4 0 0 0 0 0 0 0 0 0 0 0 0 0 0 0 0 0 0 0 0 0 0 0 0 0 0 0 0 0 0 0 0 0 0 0 0 0 0 0
1784 1816 1721 1678 1673 1839 2078 2148 2112 2055 1958 1424 638 313 127 0 0 125 1 0 9 1 0 0 0 0 0 0 0 0 0 0 0 5 0 0 0 0 0 0 0 0 0 0 0 0 0 0 0 0 0 0 0 0 0 2 0 0 0 0 0 0 0 0 0 0 0 0 0 0 0 0 0 0
1859 1774 1686 1658 1599 1806 1993 2029 2031 2022 1762 1165 489 291 80 0 0 117 0 0 1 0 0 0 0 0 0 0 0 0 0 0 1 2 4 0 2 1 0 0 0 0 0 0 0 0 0 0 0 0 0 0 0 0 0 88 0 139 5 0 0 0 0 0 0 0 0 0 0 0 0 0 0 0
1868 1588 1602 1650 1647 1793 1893 1805 1905 1767 1431 720 318 192 178 188 83 0 0 0 0 0 0 0 0 0 0 0 0 0 0 1 3 6 5 6 8 0 0 0 0 0 0 0 0 0 0 0 0 0 0 0 0 0 0 0 0 0 0 0 0 0 0 0 0 0 0 0 0 0 0 0 0 0
2096 1454 1460 1464 1630 1866 1784 1773 1700 1443 984 79 0 81 167 0 0 1 0 0 0 0 0 0 0 0 0 0 0 0 0 4 9 9 1 3 0 0 0 0 0 0 0 0 0 0 0 0 0 0 0 0 0 0 0 0 0 0 0 0 0 0 0 0 0 0 0 0 0 0 0 0 0 0
1967 1591 1521 1364 1408 1442 1592 1805 1669 1258 212 0 117 163 0 0 0 0 0 0 0 0 0 0 0 0 0 0 0 0 0 13 10 0 0 0 0 0 0 0 0 0 0 0 0 0 0 0 0 0 0 0 0 0 0 0 0 0 0 0 0 0 0 0 0 0 0 0 0 0 0 0 0 0
1739 1490 1382 1193 1129 1085 1232 1420 1076 624 95 0 42 67 0 0 0 0 0 0 0 0 0 0 0 0 0 0 0 0 0 1 0 0 0 0 0 0 0 0 0 0 0 0 0 0 0 0 0 0 0 0 0 0 0 0 0 0 0 0 0 0 0 0 1 0 0 0 0 0 0 0 0 0
1665 1315 1183 1026 1025 834 922 933 581 0 0 26 57 0 0 0 0 0 0 0 0 0 0 0 0 0 0 0 1 0 0 0 0 0 0 0 0 0 0 0 0 0 0 0 0 0 0 0 0 0 0 0 0 0 0 0 0 0 0 0 5 0 0 0 0 0 0 0 0 0 0 0 0 0
898 835 970 961 906 925 704 480 0 0 1 38 0 0 0 0 0 0 0 4 14 0 0 0 0 0 0 0 0 0 0 0 0 0 0 0 0 0 0 0 0 0 0 0 0 0 0 0 0 0 0 0 0 0 0 0 0 0 0 0 0 0 0 0 0 0 0 0 0 0 0 0 0 0
611 715 883 975 925 644 226 29 10 30 17 16 0 0 7 9 2 1 14 41 26 4 0 0 0 0 0 0 0 0 0 0 0 0 0 0 0 0 0 0 0 0 0 0 0 0 0 0 0 0 0 0 0 0 0 0 0 0 0 0 0 1 0 0 0 0 0 0 0 0 0 0 0 0
460 814 1123 730 412 183 0 17 61 31 42 7 0 3 7 8 9 20 24 27 6 0 0 0 0 0 0 0 0 0 0 0 0 0 0 0 0 0 0 0 0 0 0 0 0 0 0 0 0 0 0 0 0 0 0 0 0 0 0 0 0 0 0 0 0 0 0 0 0 0 0 0 0 0
Wind_Speed
17 18 20 18 16 14 14 13 13 14 15 15 14 14 14 14 11 13 14 15 nan nan nan nan 20 17 17 16 15 17 17 20 23 20 20 22 21 32 29 28 28 27 28 27 27 27 26 26 25 25 25 26 27 27 27 27 27 27 27 27 26 25 26 28 29 30 31 30 30 29 28 27 25 23
15 18 19 19 18 17 17 17 17 17 17 15 14 14 14 14 14 14 13 14 15 nan nan nan 19 19 18 17 17 18 19 27 22 22 23 24 27 36 32 nan nan nan nan nan nan nan nan nan nan 27 27 28 28 29 29 29 29 28 28 28 27 28 28 29 30 31 31 31 31 31 30 28 27 26
15 17 18 18 18 18 19 18 19 19 19 16 13 13 14 15 16 15 15 14 15 nan nan nan nan 18 19 16 19 20 21 27 nan 25 27 27 36 nan 36 nan nan nan nan nan nan nan nan nan nan nan 28 28 29 29 30 31 31 31 31 31 31 30 30 31 32 31 32 32 32 31 30 29 28 28
14 17 18 19 19 19 19 20 20 20 19 17 15 14 14 15 16 17 16 16 15 17 nan 15 18 15 17 18 17 18 20 28 nan 24 26 32 36 33 34 nan nan nan nan nan nan nan nan nan nan nan nan 30 29 29 30 31 32 32 33 34 34 34 33 32 31 31 32 33 33 33 31 30 28 27
13 17 19 20 21 21 21 20 21 22 22 20 18 16 16 16 17 17 18 17 17 16 16 14 13 17 15 18 18 18 19 24 26 nan 27 30 31 32 32 38 45 nan nan nan nan nan nan nan nan nan nan 33 32 32 32 32 33 34 34 35 nan nan nan nan nan nan nan nan nan nan 34 33 31 29
12 16 19 21 22 22 21 21 22 22 22 22 20 20 19 18 18 19 18 18 16 16 20 17 16 16 19 16 20 19 20 23 27 27 28 30 31 32 34 34 40 48 47 nan nan nan nan nan nan nan nan nan 37 37 35 nan nan nan nan nan nan nan nan nan nan nan nan nan nan nan nan nan nan 34
14 16 18 21 21 20 21 21 21 22 22 21 21 22 21 21 20 21 20 18 18 18 17 19 19 20 20 18 20 23 23 23 26 28 30 32 34 34 33 34 34 51 48 nan nan nan nan nan nan nan nan nan nan nan nan nan nan nan nan nan nan nan nan nan nan nan nan nan nan nan nan nan nan nan
15 17 18 20 21 20 20 20 21 21 21 22 23 23 22 22 21 21 21 21 19 18 18 21 20 20 21 22 22 23 25 25 28 29 30 32 33 34 37 37 35 45 50 51 nan nan nan nan nan nan nan nan nan nan nan nan nan nan nan nan nan nan nan nan nan nan nan nan nan nan nan nan nan nan
15 17 18 20 20 20 20 20 22 22 23 24 25 24 23 23 23 22 21 21 22 21 21 21 23 24 24 24 24 26 26 28 29 30 31 33 34 36 36 36 37 47 52 51 nan nan nan nan nan nan nan nan nan nan nan nan nan nan nan nan nan nan nan nan nan nan nan nan nan nan nan nan nan nan
16 16 18 20 21 21 21 21 22 23 25 25 25 23 23 24 24 24 23 23 24 24 23 23 24 27 26 27 27 27 27 27 29 32 34 35 37 37 38 38 39 39 42 45 50 52 49 nan nan nan nan nan nan nan nan nan nan nan nan nan nan nan nan nan nan nan nan nan nan nan nan nan nan nan
16 17 18 19 21 22 22 21 22 24 25 24 23 23 23 24 25 26 25 25 25 25 25 25 26 26 28 29 28 30 30 30 30 31 34 36 38 39 39 40 42 43 44 48 50 45 41 45 47 nan nan nan nan nan nan nan nan nan nan nan nan nan nan nan nan nan nan nan nan nan nan nan nan nan
16 17 18 19 21 22 23 22 22 24 25 23 22 22 22 24 26 25 26 26 26 26 26 26 27 29 29 30 30 31 33 32 33 34 35 36 38 40 41 42 41 43 44 43 46 55 51 48 46 47 45 43 41 39 nan nan nan nan nan nan nan nan nan nan nan nan nan nan nan nan nan nan nan nan
17 17 17 17 19 23 24 26 23 24 25 23 22 21 23 25 26 25 25 27 27 27 27 28 29 30 31 31 32 34 35 34 34 36 38 38 38 38 40 42 45 45 45 45 45 44 43 41 40 40 37 38 42 39 39 33 35 nan nan nan nan nan nan nan nan nan nan nan nan nan nan nan nan nan
18 18 18 18 20 23 28 27 27 25 27 25 20 21 23 26 26 27 27 27 27 28 30 30 31 32 33 33 34 34 34 36 37 38 39 39 39 40 39 41 43 46 45 44 43 42 41 39 38 34 33 32 33 30 32 36 42 nan nan nan nan nan nan nan nan nan nan nan nan nan nan nan nan nan
20 19 19 18 22 24 27 29 30 27 27 28 22 20 24 26 28 29 28 27 28 30 31 32 33 33 34 34 33 nan 35 38 39 39 39 38 39 38 nan nan 45 49 46 44 41 39 37 36 33 32 31 31 31 31 nan nan nan nan nan nan nan nan nan nan nan nan nan nan nan nan nan nan nan nan
21 21 21 21 22 23 26 27 29 29 29 28 26 24 25 27 29 28 28 29 30 32 33 34 34 34 35 35 35 35 36 nan 40 39 39 40 38 38 nan nan nan 47 48 42 39 35 36 34 31 31 33 33 35 nan nan nan nan nan nan nan nan nan nan nan nan nan nan nan nan nan nan nan nan nan
23 23 23 24 23 24 31 30 28 29 30 28 28 27 27 27 29 30 27 24 25 30 35 35 35 36 35 36 36 36 36 38 38 nan nan 40 40 39 40 nan nan 46 45 41 nan nan nan nan nan 34 35 nan nan nan nan nan nan nan nan nan nan nan nan nan nan nan nan nan nan nan nan nan nan nan
24 25 25 26 26 26 31 30 30 30 31 31 29 27 28 29 30 30 31 31 30 29 31 35 37 37 37 37 38 39 41 41 40 nan nan nan nan 39 39 40 43 44 nan nan nan nan nan nan nan nan nan nan nan nan 51 nan nan nan nan nan nan nan nan nan nan nan nan nan nan nan nan nan nan nan
24 26 26 27 28 29 30 31 33 32 32 33 32 31 31 32 32 33 33 34 35 36 37 37 38 39 40 40 40 43 44 43 41 40 40 40 38 38 nan nan nan nan nan nan nan nan nan nan nan nan nan nan nan nan nan nan nan nan nan nan nan nan nan nan nan nan nan nan nan nan nan nan nan nan
23 23 26 28 29 29 29 35 39 36 34 33 33 33 34 34 33 32 35 38 39 37 41 42 42 41 45 45 43 44 44 46 44 44 nan nan nan nan nan nan nan nan nan nan nan nan nan nan nan nan nan nan nan nan nan nan nan nan nan nan nan nan nan nan nan nan nan nan nan nan nan nan nan nan
25 24 24 25 29 30 29 38 41 40 38 32 31 33 35 36 36 34 39 41 42 43 44 48 51 52 53 nan nan nan nan 43 42 43 nan nan nan nan nan nan nan nan nan nan nan nan nan nan nan nan nan nan nan nan nan nan nan nan nan nan nan nan nan nan nan nan nan nan nan nan nan nan nan nan
26 25 26 26 26 29 30 41 41 44 41 34 33 34 36 37 38 37 41 42 43 46 48 49 51 52 53 nan nan nan nan nan nan nan nan nan nan nan nan nan nan nan nan nan nan nan nan nan nan nan nan nan nan nan nan nan nan nan nan nan nan nan nan nan nan nan nan nan nan nan nan nan nan nan
27 28 31 32 28 27 34 45 43 46 44 37 35 35 36 38 40 39 43 42 46 46 48 49 51 50 nan nan nan nan nan nan nan nan nan nan nan nan nan nan nan nan nan nan nan nan nan nan nan nan nan nan nan nan nan nan nan nan nan nan nan nan nan nan nan nan nan nan nan nan nan nan nan nan
28 29 30 36 34 32 43 45 46 47 45 39 36 37 37 39 42 42 44 42 45 48 49 50 50 51 nan nan nan nan nan nan nan nan nan nan nan nan nan nan nan nan nan nan nan nan nan nan nan nan nan nan nan nan nan nan nan nan nan nan nan nan nan nan nan nan nan nan nan nan nan nan nan nan
31 30 29 33 40 40 46 46 48 49 46 42 40 39 39 41 44 45 47 48 50 51 51 51 50 nan nan nan nan nan nan nan nan nan nan nan nan nan nan nan nan nan nan nan nan nan nan nan nan nan nan nan nan nan nan nan nan nan nan nan nan nan nan nan nan nan nan nan nan nan nan nan nan nan
32 30 31 31 42 46 50 50 51 51 48 44 42 41 42 45 50 48 48 52 53 53 53 52 nan nan nan nan nan nan nan nan nan nan nan nan nan nan nan nan nan nan nan nan nan nan nan nan nan nan nan nan nan nan nan nan nan nan nan nan nan nan nan nan nan nan nan nan nan 35 nan nan nan nan
34 32 33 34 46 48 52 53 54 53 51 48 44 46 49 52 55 53 51 55 55 55 55 52 nan nan nan nan nan nan nan nan nan nan nan nan nan nan nan nan nan nan nan nan nan nan nan nan nan nan nan nan nan nan nan nan nan nan nan nan nan nan nan nan nan nan nan nan nan nan nan nan nan nan
40 38 36 37 49 52 55 55 55 55 54 50 49 53 57 59 59 55 54 58 57 55 54 nan nan nan nan nan nan nan nan nan nan nan nan nan nan nan nan nan nan nan nan nan nan nan nan nan nan nan nan nan nan nan nan nan nan nan nan nan nan nan nan nan nan nan nan nan nan nan nan nan nan 31
45 45 46 49 52 54 57 58 57 56 55 53 57 60 61 63 59 58 56 59 59 56 54 50 nan nan nan nan nan nan nan nan nan nan nan nan nan nan nan nan nan nan nan nan nan nan nan nan nan nan nan nan nan nan nan nan nan nan nan nan nan nan nan nan nan nan nan nan nan nan nan nan nan nan
44 51 55 58 55 56 57 58 56 56 56 58 63 64 64 60 60 59 59 61 61 58 56 53 nan nan nan nan nan nan nan nan nan nan nan nan nan nan nan nan nan nan nan nan nan nan nan nan nan nan nan nan nan nan nan nan nan nan nan nan nan nan nan nan nan nan nan nan nan nan nan nan nan nan
51 53 53 52 53 55 57 56 59 61 63 63 65 64 62 62 61 60 60 62 62 60 59 nan nan nan nan nan nan nan nan nan nan nan nan nan nan nan nan nan nan nan nan nan nan nan nan nan nan nan nan nan nan nan nan nan nan nan nan nan nan nan nan nan nan nan nan nan nan nan nan nan nan nan
63 60 56 56 54 57 58 56 58 59 60 63 66 66 64 64 63 63 62 64 63 62 nan nan nan nan nan nan nan nan nan nan nan nan nan nan nan nan nan nan nan nan nan nan nan nan nan nan nan nan nan nan nan nan nan nan nan nan nan nan nan nan nan nan nan nan nan nan nan nan nan nan nan nan
71 68 61 56 56 57 58 58 59 59 60 61 63 65 67 66 65 65 nan nan nan 64 nan nan nan nan nan nan nan nan nan nan nan nan nan nan nan nan nan nan nan nan nan nan nan nan nan nan nan nan nan nan nan nan nan nan nan nan nan nan nan nan nan nan nan nan nan nan nan nan nan nan nan nan
69 68 66 63 62 61 60 60 59 59 60 63 64 65 69 68 66 nan nan nan nan nan nan nan nan nan nan nan nan nan nan nan nan nan nan nan nan nan nan nan nan nan nan nan nan nan nan nan nan nan nan nan nan nan nan nan nan nan nan nan nan nan nan nan nan nan nan nan nan nan nan nan nan nan
70 68 69 70 71 68 66 64 61 60 62 64 66 69 71 69 nan nan nan nan nan nan nan nan nan nan nan nan nan nan nan nan nan nan nan nan nan nan nan nan nan nan nan nan nan nan nan nan nan nan nan nan nan nan nan nan nan nan nan nan nan nan nan nan nan nan nan nan nan nan nan nan nan nan
78 74 72 72 72 74 74 71 67 63 62 63 67 72 75 nan nan 63 nan nan nan nan nan nan nan nan nan nan nan nan nan nan nan nan nan nan nan nan nan nan nan nan nan nan nan nan nan nan nan nan nan nan nan nan nan nan nan nan nan nan nan nan nan nan nan nan nan nan nan nan nan nan nan nan
83 84 80 75 72 72 72 71 69 66 66 67 69 72 nan nan nan 66 nan nan nan nan nan nan nan nan nan nan nan nan nan nan nan nan nan nan nan nan nan nan nan nan nan nan nan nan nan nan nan nan nan nan nan nan nan nan nan 51 nan nan nan nan nan nan nan nan nan nan nan nan nan nan nan nan
84 87 85 81 77 72 71 71 71 70 70 71 74 75 73 70 nan nan nan nan nan nan nan nan nan nan nan nan nan nan nan nan nan nan nan nan nan nan nan nan nan nan nan nan nan nan nan nan nan nan nan nan nan nan nan nan nan nan nan nan nan nan nan nan nan nan nan nan nan nan nan nan nan nan
86 86 85 84 80 76 73 72 71 73 75 nan nan nan 69 nan nan nan nan nan nan nan nan nan nan nan nan nan nan nan nan nan nan nan nan nan nan nan nan nan nan nan nan nan nan nan nan nan nan nan nan nan nan nan nan nan nan nan nan nan nan nan nan nan nan nan nan nan nan nan nan nan nan nan
85 85 83 83 82 79 76 73 72 73 74 nan 66 61 nan nan nan nan nan nan nan nan nan nan nan nan nan nan nan nan nan nan nan nan nan nan nan nan nan nan nan nan nan nan nan nan nan nan nan nan nan nan nan nan nan nan nan nan nan nan nan nan nan nan nan nan nan nan nan nan nan nan nan nan
84 83 84 85 85 81 78 76 74 74 nan nan nan nan nan nan nan nan nan nan nan nan nan nan nan nan nan nan nan nan nan nan nan nan nan nan nan nan nan nan nan nan nan nan nan nan nan nan nan nan nan nan nan nan nan nan nan nan nan nan nan nan nan nan nan nan nan nan nan nan nan nan nan nan
87 84 83 85 85 82 78 74 71 nan nan nan nan nan nan nan nan nan nan nan nan nan nan nan nan nan nan nan nan nan nan nan nan nan nan nan nan nan nan nan nan nan nan nan nan nan nan nan nan nan nan nan nan nan nan nan nan nan nan nan nan nan nan nan nan nan nan nan nan nan nan nan nan nan
85 83 81 81 81 78 75 72 nan nan nan nan nan nan nan nan nan nan nan nan nan nan nan nan nan nan nan nan nan nan nan nan nan nan nan nan nan nan nan nan nan nan nan nan nan nan nan nan nan nan nan nan nan nan nan nan nan nan nan nan nan nan nan nan nan nan nan nan nan nan nan nan nan nan
73 75 74 74 76 75 72 nan nan nan nan nan nan nan nan nan nan nan nan nan nan nan nan nan nan nan nan nan nan nan nan nan nan nan nan nan nan nan nan nan nan nan nan nan nan nan nan nan nan nan nan nan nan nan nan nan nan nan nan nan nan nan nan nan nan nan nan nan nan nan nan nan nan nan
60 62 65 71 75 76 nan nan nan nan nan nan nan nan nan nan nan nan nan nan nan nan nan nan nan nan nan nan nan nan nan nan nan nan nan nan nan nan nan nan nan nan nan nan nan nan nan nan nan nan nan nan nan nan nan nan nan nan nan nan nan nan nan nan nan nan nan nan nan nan nan nan nan nan
Wind_Direction
7 7 9 8 9 2 354 356 357 354 354 353 349 348 347 340 341 332 332 333 nan nan nan nan 328 335 335 339 340 337 342 330 327 339 337 330 330 321 326 324 324 323 321 319 319 318 317 316 315 311 309 306 305 303 301 299 297 295 293 290 284 276 271 270 270 269 268 266 264 264 264 263 262 260
10 9 7 8 7 3 360 359 4 357 357 358 353 352 351 346 344 335 333 327 331 nan nan nan 329 333 336 339 340 338 337 315 335 332 331 328 318 314 321 nan nan nan nan nan nan nan nan nan nan 312 309 306 303 301 299 297 295 294 292 289 285 279 272 268 265 265 265 266 265 264 264 262 261 261
8 8 7 3 5 1 1 2 2 1 359 1 359 355 351 348 346 341 334 336 329 nan nan nan nan 325 332 338 333 333 330 323 nan 330 325 325 310 nan 323 nan nan nan nan nan nan nan nan nan nan nan 310 306 302 298 296 293 291 289 286 283 280 277 273 269 265 260 260 260 261 260 260 260 261 261
0 2 4 2 1 359 360 360 1 359 360 1 359 357 352 349 348 342 340 340 332 328 nan 327 329 342 331 329 331 330 324 317 nan 329 327 317 316 326 327 nan nan nan nan nan nan nan nan nan nan nan nan 308 303 299 294 290 287 284 282 282 281 280 278 274 270 264 260 258 257 257 257 257 256 256
352 355 359 1 1 0 360 355 354 357 357 360 359 354 352 352 347 345 342 342 339 335 329 330 331 322 324 327 325 325 325 322 322 nan 326 324 325 324 323 322 327 nan nan nan nan nan nan nan nan nan nan 312 307 300 296 293 289 285 283 281 nan nan nan nan nan nan nan nan nan nan 254 253 252 252
339 345 353 359 359 358 359 353 351 353 354 355 356 353 352 350 347 344 344 342 339 337 326 331 327 322 322 322 318 321 324 324 321 324 324 323 324 322 322 323 324 331 330 nan nan nan nan nan nan nan nan nan 307 304 300 nan nan nan nan nan nan nan nan nan nan nan nan nan nan nan nan nan nan 248
334 339 346 354 356 352 354 352 350 351 354 353 354 352 347 347 344 341 343 342 341 338 332 326 325 323 319 321 317 323 325 323 322 324 324 324 322 321 323 325 324 328 330 nan nan nan nan nan nan nan nan nan nan nan nan nan nan nan nan nan nan nan nan nan nan nan nan nan nan nan nan nan nan nan
331 335 340 350 354 351 350 348 347 348 349 349 347 347 345 344 344 340 338 342 340 336 333 326 324 317 317 321 322 320 321 325 324 324 322 322 321 322 325 327 329 326 329 328 nan nan nan nan nan nan nan nan nan nan nan nan nan nan nan nan nan nan nan nan nan nan nan nan nan nan nan nan nan nan
326 331 338 342 347 347 346 343 345 343 344 342 342 343 344 344 342 340 339 339 340 339 336 329 323 320 321 320 321 322 324 325 325 323 324 323 323 325 327 328 329 324 329 330 nan nan nan nan nan nan nan nan nan nan nan nan nan nan nan nan nan nan nan nan nan nan nan nan nan nan nan nan nan nan
319 325 332 335 339 343 343 341 340 338 340 340 344 346 344 342 340 342 341 337 338 338 336 331 327 323 323 321 323 323 324 323 323 323 323 324 326 327 329 329 330 331 329 329 329 330 331 nan nan nan nan nan nan nan nan nan nan nan nan nan nan nan nan nan nan nan nan nan nan nan nan nan nan nan
314 321 324 330 335 337 339 339 337 334 338 341 348 347 344 341 340 339 338 336 337 337 335 333 328 324 322 323 323 323 322 323 323 322 324 326 326 329 330 330 331 332 332 332 332 332 327 319 326 nan nan nan nan nan nan nan nan nan nan nan nan nan nan nan nan nan nan nan nan nan nan nan nan nan
307 315 321 327 330 333 334 335 334 333 333 336 345 344 341 340 340 339 336 336 336 336 335 332 328 325 323 322 321 319 320 322 323 324 325 328 328 330 330 331 332 332 333 335 334 332 333 332 331 326 326 327 326 327 nan nan nan nan nan nan nan nan nan nan nan nan nan nan nan nan nan nan nan nan
299 305 312 321 327 327 329 332 331 332 327 330 338 341 340 339 338 337 336 336 336 334 332 330 326 323 322 322 321 321 321 324 324 323 326 328 329 330 331 332 335 336 336 335 334 331 328 326 324 323 322 321 327 332 335 328 333 nan nan nan nan nan nan nan nan nan nan nan nan nan nan nan nan nan
295 302 305 311 324 320 322 323 326 327 324 331 336 338 339 337 336 336 338 338 338 335 331 328 326 324 324 324 323 322 322 322 323 325 327 330 330 329 330 334 339 337 336 336 334 331 328 326 324 323 324 322 325 321 324 307 299 nan nan nan nan nan nan nan nan nan nan nan nan nan nan nan nan nan
289 292 299 302 308 312 311 316 321 323 323 328 334 333 338 337 334 333 336 339 342 336 331 328 328 326 325 323 320 nan 321 323 325 327 327 330 329 331 nan nan 339 337 336 336 335 332 327 324 324 323 324 324 322 322 nan nan nan nan nan nan nan nan nan nan nan nan nan nan nan nan nan nan nan nan
284 288 292 296 298 307 313 311 312 318 321 324 331 333 332 334 334 332 332 336 339 337 335 333 331 329 325 321 319 321 324 nan 324 326 328 328 329 332 nan nan nan 335 334 335 336 332 330 328 326 326 326 325 324 nan nan nan nan nan nan nan nan nan nan nan nan nan nan nan nan nan nan nan nan nan
284 285 287 290 294 294 304 305 309 313 315 320 329 335 331 327 327 327 330 327 327 332 337 336 334 329 323 322 321 323 323 321 325 nan nan 328 330 333 338 nan nan 337 335 337 nan nan nan nan nan 329 325 nan nan nan nan nan nan nan nan nan nan nan nan nan nan nan nan nan nan nan nan nan nan nan
287 289 287 288 290 292 296 302 306 306 310 313 318 323 325 325 324 325 328 331 337 335 332 334 335 331 326 323 321 320 320 324 326 nan nan nan nan 334 338 337 338 339 nan nan nan nan nan nan nan nan nan nan nan nan 323 nan nan nan nan nan nan nan nan nan nan nan nan nan nan nan nan nan nan nan
288 289 288 288 289 291 294 297 303 304 306 308 313 320 324 325 323 324 327 331 333 334 336 335 334 331 326 323 321 319 321 323 322 322 321 321 324 329 nan nan nan nan nan nan nan nan nan nan nan nan nan nan nan nan nan nan nan nan nan nan nan nan nan nan nan nan nan nan nan nan nan nan nan nan
286 288 287 286 287 289 293 295 301 301 301 306 309 315 318 318 318 320 324 327 331 328 331 332 332 330 320 314 317 316 320 320 319 321 nan nan nan nan nan nan nan nan nan nan nan nan nan nan nan nan nan nan nan nan nan nan nan nan nan nan nan nan nan nan nan nan nan nan nan nan nan nan nan nan
285 286 287 286 282 286 290 292 299 299 300 304 309 311 311 310 313 317 302 297 301 301 301 303 302 305 309 nan nan nan nan 311 317 322 nan nan nan nan nan nan nan nan nan nan nan nan nan nan nan nan nan nan nan nan nan nan nan nan nan nan nan nan nan nan nan nan nan nan nan nan nan nan nan nan
281 284 286 283 285 286 287 290 297 296 298 300 304 307 308 311 312 311 306 308 301 298 299 301 303 306 309 nan nan nan nan nan nan nan nan nan nan nan nan nan nan nan nan nan nan nan nan nan nan nan nan nan nan nan nan nan nan nan nan nan nan nan nan nan nan nan nan nan nan nan nan nan nan nan
284 282 281 288 287 288 283 290 293 294 296 297 301 302 304 308 309 310 308 311 311 309 309 308 308 309 nan nan nan nan nan nan nan nan nan nan nan nan nan nan nan nan nan nan nan nan nan nan nan nan nan nan nan nan nan nan nan nan nan nan nan nan nan nan nan nan nan nan nan nan nan nan nan nan
289 288 285 288 295 286 282 289 290 292 294 291 296 296 300 305 305 305 303 309 309 308 312 311 311 313 nan nan nan nan nan nan nan nan nan nan nan nan nan nan nan nan nan nan nan nan nan nan nan nan nan nan nan nan nan nan nan nan nan nan nan nan nan nan nan nan nan nan nan nan nan nan nan nan
293 293 293 284 290 290 284 286 288 289 292 289 287 294 297 299 299 299 299 301 305 307 311 312 308 nan nan nan nan nan nan nan nan nan nan nan nan nan nan nan nan nan nan nan nan nan nan nan nan nan nan nan nan nan nan nan nan nan nan nan nan nan nan nan nan nan nan nan nan nan nan nan nan nan
292 294 291 285 286 293 285 285 286 288 290 290 283 288 291 293 295 293 297 298 301 305 309 309 nan nan nan nan nan nan nan nan nan nan nan nan nan nan nan nan nan nan nan nan nan nan nan nan nan nan nan nan nan nan nan nan nan nan nan nan nan nan nan nan nan nan nan nan nan 317 nan nan nan nan
286 286 287 287 288 292 285 285 286 286 290 287 283 287 288 286 292 292 296 296 300 303 307 308 nan nan nan nan nan nan nan nan nan nan nan nan nan nan nan nan nan nan nan nan nan nan nan nan nan nan nan nan nan nan nan nan nan nan nan nan nan nan nan nan nan nan nan nan nan nan nan nan nan nan
281 281 284 283 286 288 286 285 285 285 285 282 287 281 284 286 288 290 293 293 297 301 305 nan nan nan nan nan nan nan nan nan nan nan nan nan nan nan nan nan nan nan nan nan nan nan nan nan nan nan nan nan nan nan nan nan nan nan nan nan nan nan nan nan nan nan nan nan nan nan nan nan nan 304
284 283 285 281 282 284 284 284 283 281 284 287 284 281 284 284 287 289 290 291 293 298 301 301 nan nan nan nan nan nan nan nan nan nan nan nan nan nan nan nan nan nan nan nan nan nan nan nan nan nan nan nan nan nan nan nan nan nan nan nan nan nan nan nan nan nan nan nan nan nan nan nan nan nan
287 283 282 281 281 279 279 276 273 272 275 280 280 281 282 282 288 289 289 288 291 295 298 297 nan nan nan nan nan nan nan nan nan nan nan nan nan nan nan nan nan nan nan nan nan nan nan nan nan nan nan nan nan nan nan nan nan nan nan nan nan nan nan nan nan nan nan nan nan nan nan nan nan nan
276 280 279 278 279 273 279 277 274 274 276 274 274 275 278 284 284 286 287 289 291 294 296 nan nan nan nan nan nan nan nan nan nan nan nan nan nan nan nan nan nan nan nan nan nan nan nan nan nan nan nan nan nan nan nan nan nan nan nan nan nan nan nan nan nan nan nan nan nan nan nan nan nan nan
270 271 272 273 272 273 271 270 268 270 272 273 273 275 280 282 281 285 286 287 288 289 nan nan nan nan nan nan nan nan nan nan nan nan nan nan nan nan nan nan nan nan nan nan nan nan nan nan nan nan nan nan nan nan nan nan nan nan nan nan nan nan nan nan nan nan nan nan nan nan nan nan nan nan
269 270 268 268 271 272 272 272 272 273 273 276 278 281 280 278 280 282 nan nan nan 289 nan nan nan nan nan nan nan nan nan nan nan nan nan nan nan nan nan nan nan nan nan nan nan nan nan nan nan nan nan nan nan nan nan nan nan nan nan nan nan nan nan nan nan nan nan nan nan nan nan nan nan nan
277 275 273 273 271 269 270 272 272 273 274 274 275 276 274 274 275 nan nan nan nan nan nan nan nan nan nan nan nan nan nan nan nan nan nan nan nan nan nan nan nan nan nan nan nan nan nan nan nan nan nan nan nan nan nan nan nan nan nan nan nan nan nan nan nan nan nan nan nan nan nan nan nan nan
281 277 279 277 273 272 274 273 273 272 273 274 273 273 271 271 nan nan nan nan nan nan nan nan nan nan nan nan nan nan nan nan nan nan nan nan nan nan nan nan nan nan nan nan nan nan nan nan nan nan nan nan nan nan nan nan nan nan nan nan nan nan nan nan nan nan nan nan nan nan nan nan nan nan
281 279 276 273 274 276 277 277 275 274 274 272 271 269 270 nan nan 275 nan nan nan nan nan nan nan nan nan nan nan nan nan nan nan nan nan nan nan nan nan nan nan nan nan nan nan nan nan nan nan nan nan nan nan nan nan nan nan nan nan nan nan nan nan nan nan nan nan nan nan nan nan nan nan nan
281 278 275 276 276 278 278 281 280 279 277 277 274 271 nan nan nan 274 nan nan nan nan nan nan nan nan nan nan nan nan nan nan nan nan nan nan nan nan nan nan nan nan nan nan nan nan nan nan nan nan nan nan nan nan nan nan nan 1 nan nan nan nan nan nan nan nan nan nan nan nan nan nan nan nan
276 277 278 277 276 276 277 278 278 276 275 276 275 274 273 273 nan nan nan nan nan nan nan nan nan nan nan nan nan nan nan nan nan nan nan nan nan nan nan nan nan nan nan nan nan nan nan nan nan nan nan nan nan nan nan nan nan nan nan nan nan nan nan nan nan nan nan nan nan nan nan nan nan nan
275 274 275 276 275 273 271 272 274 275 276 nan nan nan 274 nan nan nan nan nan nan nan nan nan nan nan nan nan nan nan nan nan nan nan nan nan nan nan nan nan nan nan nan nan nan nan nan nan nan nan nan nan nan nan nan nan nan nan nan nan nan nan nan nan nan nan nan nan nan nan nan nan nan nan
278 276 275 274 274 274 271 268 269 271 273 nan 270 274 nan nan nan nan nan nan nan nan nan nan nan nan nan nan nan nan nan nan nan nan nan nan nan nan nan nan nan nan nan nan nan nan nan nan nan nan nan nan nan nan nan nan nan nan nan nan nan nan nan nan nan nan nan nan nan nan nan nan nan nan
275 275 272 270 269 270 270 268 267 268 nan nan nan nan nan nan nan nan nan nan nan nan nan nan nan nan nan nan nan nan nan nan nan nan nan nan nan nan nan nan nan nan nan nan nan nan nan nan nan nan nan nan nan nan nan nan nan nan nan nan nan nan nan nan nan nan nan nan nan nan nan nan nan nan
274 272 270 268 267 265 266 266 265 nan nan nan nan nan nan nan nan nan nan nan nan nan nan nan nan nan nan nan nan nan nan nan nan nan nan nan nan nan nan nan nan nan nan nan nan nan nan nan nan nan nan nan nan nan nan nan nan nan nan nan nan nan nan nan nan nan nan nan nan nan nan nan nan nan
269 265 263 263 261 260 261 263 nan nan nan nan nan nan nan nan nan nan nan nan nan nan nan nan nan nan nan nan nan nan nan nan nan nan nan nan nan nan nan nan nan nan nan nan nan nan nan nan nan nan nan nan nan nan nan nan nan nan nan nan nan nan nan nan nan nan nan nan nan nan nan nan nan nan
259 258 256 257 256 257 259 nan nan nan nan nan nan nan nan nan nan nan nan nan nan nan nan nan nan nan nan nan nan nan nan nan nan nan nan nan nan nan nan nan nan nan nan nan nan nan nan nan nan nan nan nan nan nan nan nan nan nan nan nan nan nan nan nan nan nan nan nan nan nan nan nan nan nan
252 251 249 250 253 253 nan nan nan nan nan nan nan nan nan nan nan nan nan nan nan nan nan nan nan nan nan nan nan nan nan nan nan nan nan nan nan nan nan nan nan nan nan nan nan nan nan nan nan nan nan nan nan nan nan nan nan nan nan nan nan nan nan nan nan nan nan nan nan nan nan nan nan nan